This demonstration page uses our WeatherBlox Daily Observations layout. Learn more.

Left ArrowRight Arrow

39.92423, -83.80882

Hourly Observations for January 8, 2020

Temp ( °F °C ) Dew Point ( °F °C ) Humidity (%) Winds ( mph kmh ) Pressure ( in mb ) Visibility ( mi km ) Precip ( " mm )
12:56 am 00:56 Cloudy 36 2.2 30 -1.1 79 79 W 14 22 30.05 1018 10 16.0934 1.41 35.814
1:05 am 01:05 Cloudy 36 2 30 -1 81 81 W 16 26 30.07 1018 10 16.0934 0.01 0.254
1:56 am 01:56 Cloudy 36 2.2 31 -0.6 82 82 W 16 26 30.06 1018 10 16.0934 0.1 2.54
2:24 am 02:24 Cloudy 36 2 30 -1 81 81 WSW 15 24 30.07 1018 10 16.0934 0.02 0.508
2:56 am 02:56 Cloudy 35 1.7 30 -1.1 82 82 WSW 17 28 30.06 1018 10 16.0934 0.03 0.762
3:56 am 03:56 Mostly Cloudy 34 1.1 30 -1.1 85 85 W 15 24 30.08 1019 10 16.0934 0.04 1.016
4:56 am 04:56 Clear 33 0.6 29 -1.7 85 85 W 15 24 30.09 1019 10 16.0934 0 0
5:56 am 05:56 Clear 32 0 27 -2.8 82 82 W 18 30 30.11 1020 10 16.0934 0 0
6:56 am 06:56 Clear 31 -0.6 22 -5.6 69 69 W 17 28 30.15 1021 10 16.0934 0.02 0.508
7:56 am 07:56 Clear 29 -1.7 17 -8.3 61 61 W 24 39 30.2 1023 10 16.0934 0 0
8:56 am 08:56 Sunny 29 -1.7 16 -8.9 58 58 WNW 20 31 30.25 1025 10 16.0934 0 0
9:56 am 09:56 Sunny 29 -1.7 17 -8.3 61 61 WNW 20 31 30.29 1026 10 16.0934 0 0
10:56 am 10:56 Sunny 30 -1.1 17 -8.3 58 58 NW 20 31 30.33 1027 10 16.0934 0.08 2.032
11:56 am 11:56 Mostly Sunny 30 -1.1 18 -7.8 61 61 WNW 16 26 30.36 1028 10 16.0934 0 0
12:56 pm 12:56 Partly Cloudy 31 -0.6 19 -7.2 61 61 W 18 30 30.36 1028 10 16.0934 0 0
1:56 pm 13:56 Sunny 31 -0.6 19 -7.2 61 61 WNW 13 20 30.38 1029 10 16.0934 0 0
2:56 pm 14:56 Sunny 31 -0.6 20 -6.7 64 64 NW 9 15 30.4 1030 10 16.0934 0 0
3:56 pm 15:56 Sunny 31 -0.6 19 -7.2 61 61 NW 10 17 30.43 1030 10 16.0934 0 0
4:56 pm 16:56 Sunny 28 -2.2 18 -7.8 66 66 NNW 8 13 30.45 1031 10 16.0934 0 0
5:56 pm 17:56 Clear 25 -3.9 17 -8.3 72 72 N 6 9 30.47 1032 10 16.0934 0 0
6:56 pm 18:56 Clear 25 -3.9 17 -8.3 72 72 NNW 3 6 30.49 1032 10 16.0934 0 0
7:56 pm 19:56 Clear 25 -3.9 17 -8.3 72 72 NNE 3 6 30.51 1033 10 16.0934 0 0
8:56 pm 20:56 Clear 20 -6.7 16 -8.9 85 85 ENE 6 9 30.52 1034 10 16.0934 0 0
9:56 pm 21:56 Clear 21 -6.1 16 -8.9 81 81 E 6 9 30.53 1034 10 16.0934 0 0
10:56 pm 22:56 Clear 20 -6.7 15 -9.4 81 81 E 8 13 30.52 1034 10 16.0934 0 0
11:56 pm 23:56 Clear 21 -6.1 17 -8.3 85 85 E 9 15 30.51 1033 10 16.0934 0 0

Powered by AerisWeather